Alderney, United Kingdom

6:45 AM BST on May 28, 2017 (GMT +0100)
Alderney

Weather History for EGJA - October, 2012

Change the Weather History Date:

Tuesday, October 9, 2012

  Actual Average Record
Temperature  
Mean Temperature 58 °F -  
Max Temperature 60 °F 56 °F 66 °F (2006)
Min Temperature 57 °F 51 °F 51 °F (2005)
Degree Days  
Heating Degree Days 6    
Growing Degree Days 8 (Base 50)    
Moisture  
Dew Point 59 °F    
Average Humidity 100    
Maximum Humidity 100    
Minimum Humidity 100    
Precipitation  
Precipitation 0.00 in - - ()
Sea Level Pressure  
Sea Level Pressure 29.94 in    
Wind  
Wind Speed 8 mph ()    
Max Wind Speed 10 mph    
Max Gust Speed -    
Visibility 0.6 miles    
Events Fog , Rain    
Averages and records for this station are not official NWS values.
T = Trace of Precipitation, MM = Missing Value Source: Averaged Metar Reports

Daily Weather History Graph

Daily Weather History Graph

Search for Another Location

Airport or City:

Trip Planner

Search our weather history database for the weather conditions in past years. The results will help you decide how hot, cold, wet, or windy it might be!

Date:

Astronomy

Oct. 09, 2012 Rise Set
Actual Time 7:21 AM BST 6:29 PM BST
Civil Twilight 6:49 AM BST 7:01 PM BST
Nautical Twilight 6:12 AM BST 7:38 PM BST
Astronomical Twilight 5:34 AM BST 8:16 PM BST
Moon 12:09 AM BST (10/9) 3:19 PM BST (10/9)
Length of Visible Light 12h 12m
Length of Day
11h 08m
Last Quarter, 39% of the Moon is Illuminated
Oct 9
Last Quarter
Oct 15
New
Oct 22
First Quarter
Oct 29
Full
Nov 7
Last Quarter

Hourly Weather History & Observations

Time (BST) Temp. Dew Point Humidity Pressure Visibility Wind Dir Wind Speed Gust Speed Precip Events Conditions
6:50 AM 57.2 °F 57.2 °F 100% 29.92 in 1.2 mi East 8.1 mph - N/A Fog Mostly Cloudy
7:20 AM 57.2 °F 57.2 °F 100% 29.92 in 0.2 mi East 10.4 mph - N/A Fog Light Drizzle
7:50 AM 57.2 °F 57.2 °F 100% 29.95 in 0.2 mi East 10.4 mph - N/A Fog Light Drizzle
8:20 AM 57.2 °F 57.2 °F 100% 29.95 in 0.2 mi East 10.4 mph - N/A Fog Fog
8:50 AM 57.2 °F 57.2 °F 100% 29.95 in 0.7 mi East 10.4 mph - N/A Fog Mostly Cloudy
9:20 AM 57.2 °F 57.2 °F 100% 29.95 in 6.2 mi ESE 8.1 mph - N/A Fog Mostly Cloudy
9:50 AM 59.0 °F 59.0 °F 100% 29.95 in 3.1 mi ESE 9.2 mph - N/A Fog Light Drizzle
10:20 AM 59.0 °F 59.0 °F 100% 29.95 in 0.7 mi ESE 10.4 mph - N/A Fog Light Drizzle
10:50 AM - - N/A% - 0.1 mi ESE 10.4 mph - N/A Fog , Rain Rain
11:20 AM 59.0 °F 59.0 °F 100% 29.95 in 0.1 mi SE 8.1 mph - N/A Fog , Rain Rain
11:50 AM 59.0 °F 59.0 °F 100% 29.95 in 0.1 mi SE 8.1 mph - N/A Fog , Rain Light Rain
12:20 PM 59.0 °F 59.0 °F 100% 29.95 in 0.1 mi SE 9.2 mph - N/A Fog , Rain Rain
12:50 PM 59.0 °F 59.0 °F 100% 29.95 in 0.1 mi SE 6.9 mph - N/A Fog , Rain Light Rain
1:20 PM 60.8 °F 60.8 °F 100% 29.95 in 0.1 mi South 5.8 mph - N/A Fog , Rain Light Rain
1:50 PM 60.8 °F 60.8 °F 100% 29.95 in 0.1 mi SW 6.9 mph - N/A Fog Light Drizzle
2:20 PM 60.8 °F 60.8 °F 100% 29.92 in 0.1 mi SW 6.9 mph - N/A Fog Fog
2:50 PM 60.8 °F 60.8 °F 100% 29.92 in 0.1 mi SW 6.9 mph - N/A Fog Fog
3:20 PM 60.8 °F 60.8 °F 100% 29.92 in 0.1 mi WSW 6.9 mph - N/A Fog Fog
3:50 PM 60.8 °F 60.8 °F 100% 29.92 in 0.1 mi West 9.2 mph - N/A Fog Fog
4:20 PM 60.8 °F 60.8 °F 100% 29.92 in 0.1 mi West 9.2 mph - N/A Fog Fog
4:50 PM 59.0 °F 59.0 °F 100% 29.92 in 0.1 mi West 8.1 mph - N/A Fog Fog
5:20 PM 59.0 °F 59.0 °F 100% 29.92 in 0.1 mi West 5.8 mph - N/A Fog Fog
5:50 PM 59.0 °F 59.0 °F 100% 29.92 in 0.1 mi West 5.8 mph - N/A Fog Fog
6:20 PM 59.0 °F 59.0 °F 100% 29.92 in 0.2 mi West 4.6 mph - N/A Fog Fog